timestamp,surface_pressure_avg,surface_temp_avg,battery_voltage,lat,long
2017-10-07 00:00:00+00:00,383.0046,12.5,13.05,47.84626,-54.09684
2017-10-07 00:10:00+00:00,383.9346,12.5,12.97,47.84626,-54.09684
2017-10-07 00:20:00+00:00,385.3313,12.49,13.05,47.84626,-54.09684
2017-10-07 00:30:00+00:00,383.3413,12.48,13.05,47.84626,-54.09684
2017-10-07 00:40:00+00:00,376.4879,12.46,13.05,47.84626,-54.09684
2017-10-07 00:50:00+00:00,367.368,12.46,13.05,47.84626,-54.09684
2017-10-07 01:00:00+00:00,366.6746,12.47,12.97,47.84626,-54.09684
2017-10-07 01:10:00+00:00,359.0945,12.48,12.97,47.84626,-54.09684
2017-10-07 01:20:00+00:00,347.9812,12.48,12.97,47.84626,-54.09684
2017-10-07 01:30:00+00:00,342.7664,12.47,12.97,47.84626,-54.09684
2017-10-07 01:40:00+00:00,338.4113,12.48,13.05,47.84626,-54.09684
2017-10-07 01:50:00+00:00,334.043,12.46,13.05,47.84626,-54.09684
2017-10-07 02:00:00+00:00,331.5229,12.5,12.97,47.84626,-54.09684
2017-10-07 02:10:00+00:00,324.5013,12.5,12.89,47.84626,-54.09684
2017-10-07 02:20:00+00:00,309.1346,12.53,12.97,47.84626,-54.09684
2017-10-07 02:30:00+00:00,300.4847,12.5,12.97,47.84626,-54.09684
2017-10-07 02:40:00+00:00,300.7413,12.5,12.97,47.84626,-54.09684
2017-10-07 02:50:00+00:00,293.1963,12.51,13.05,47.84626,-54.09684
2017-10-07 03:00:00+00:00,273.7081,12.54,12.97,47.84626,-54.09684
2017-10-07 03:10:00+00:00,269.3631,12.5,12.89,47.84626,-54.09684
2017-10-07 03:20:00+00:00,270.0081,12.5,12.97,47.84626,-54.09684
2017-10-07 03:30:00+00:00,257.8281,12.5,12.97,47.84626,-54.09684
2017-10-07 03:40:00+00:00,242.1581,12.5,12.97,47.84626,-54.09684
2017-10-07 03:50:00+00:00,239.8897,12.5,12.97,47.84626,-54.09684
2017-10-07 04:00:00+00:00,229.5981,12.5,12.97,47.84626,-54.09684
2017-10-07 04:10:00+00:00,216.8347,12.5,12.89,47.84626,-54.09684
2017-10-07 04:20:00+00:00,211.5715,12.5,12.97,47.84626,-54.09684
2017-10-07 04:30:00+00:00,207.5014,12.5,12.97,47.84626,-54.09684
2017-10-07 04:40:00+00:00,196.0398,12.5,12.97,47.84626,-54.09684
2017-10-07 04:50:00+00:00,185.4065,12.5,12.97,47.84626,-54.09684
2017-10-07 05:00:00+00:00,179.3481,12.5,12.97,47.84626,-54.09684
2017-10-07 05:10:00+00:00,176.0398,12.5,12.89,47.84626,-54.09684
2017-10-07 05:20:00+00:00,173.7615,12.5,12.97,47.84626,-54.09684
2017-10-07 05:30:00+00:00,172.1848,12.5,12.97,47.84626,-54.09684
2017-10-07 05:40:00+00:00,168.3931,12.5,12.97,47.84626,-54.09684
2017-10-07 05:50:00+00:00,165.8448,12.5,12.97,47.84626,-54.09684
2017-10-07 06:00:00+00:00,169.8849,12.48,12.89,47.84626,-54.09684
2017-10-07 06:10:00+00:00,172.3531,12.49,12.81,47.84626,-54.09684
2017-10-07 06:20:00+00:00,172.5898,12.5,12.89,47.84626,-54.09684
2017-10-07 06:30:00+00:00,174.7798,12.53,12.89,47.84626,-54.09684
2017-10-07 06:40:00+00:00,179.8865,12.55,12.97,47.84626,-54.09684
2017-10-07 06:50:00+00:00,184.7032,12.5,12.97,47.84626,-54.09684
2017-10-07 07:00:00+00:00,181.4099,12.3,12.89,47.84626,-54.09684
2017-10-07 07:10:00+00:00,183.0182,12.2,12.81,47.84626,-54.09684
2017-10-07 07:20:00+00:00,193.3948,12.2,12.89,47.84626,-54.09684
2017-10-07 07:30:00+00:00,195.7548,12.2,12.89,47.84626,-54.09684
2017-10-07 07:40:00+00:00,194.1098,12.2,12.89,47.84626,-54.09684
2017-10-07 07:50:00+00:00,201.1497,12.2,12.89,47.84626,-54.09684
2017-10-07 08:00:00+00:00,208.3347,12.2,12.89,47.84626,-54.09684
2017-10-07 08:10:00+00:00,209.6515,12.2,12.81,47.84626,-54.09684
2017-10-07 08:20:00+00:00,215.0814,12.2,12.89,47.84626,-54.09684
2017-10-07 08:30:00+00:00,223.1281,12.2,12.89,47.84626,-54.09684
2017-10-07 08:40:00+00:00,229.2314,12.2,12.89,47.84626,-54.09684
2017-10-07 08:50:00+00:00,235.0814,12.2,12.89,47.84626,-54.09684
2017-10-07 09:00:00+00:00,242.6981,12.2,12.89,47.84626,-54.09684
2017-10-07 09:10:00+00:00,248.3098,12.19,12.81,47.84626,-54.09684
2017-10-07 09:20:00+00:00,256.6964,12.23,12.89,47.84626,-54.09684
2017-10-07 09:30:00+00:00,264.5648,12.44,12.89,47.84626,-54.09684
2017-10-07 09:40:00+00:00,273.9947,12.49,12.89,47.84626,-54.09684
2017-10-07 09:50:00+00:00,281.3597,12.0,12.89,47.84626,-54.09684
2017-10-07 10:00:00+00:00,288.6097,12.19,13.05,47.84626,-54.09684
2017-10-07 10:10:00+00:00,295.248,12.39,13.37,47.84626,-54.09684
2017-10-07 10:20:00+00:00,308.5513,12.41,13.92,47.84626,-54.09684
2017-10-07 10:30:00+00:00,318.5264,12.4,14.24,47.84626,-54.09684
2017-10-07 10:40:00+00:00,324.653,12.4,13.68,47.84626,-54.09684
2017-10-07 10:50:00+00:00,334.1029,12.47,13.53,47.84626,-54.09684
2017-10-07 11:00:00+00:00,346.2162,12.47,13.53,47.84626,-54.09684
2017-10-07 11:10:00+00:00,354.153,12.48,13.84,47.84626,-54.09684
2017-10-07 11:20:00+00:00,360.9229,12.5,13.6,47.84626,-54.09684
2017-10-07 11:30:00+00:00,366.1196,12.5,14.0,47.84626,-54.09684
2017-10-07 11:40:00+00:00,371.7446,12.49,13.44,47.84626,-54.09684
2017-10-07 11:50:00+00:00,373.8428,12.49,13.44,47.84626,-54.09684
2017-10-07 12:00:00+00:00,374.813,12.49,13.84,47.84626,-54.09684
2017-10-07 12:10:00+00:00,378.9812,12.5,13.6,47.84626,-54.09684
2017-10-07 12:20:00+00:00,381.1763,12.5,13.44,47.84626,-54.09684
2017-10-07 12:30:00+00:00,376.9146,12.5,13.53,47.84626,-54.09684
2017-10-07 12:40:00+00:00,379.4146,12.5,13.53,47.84626,-54.09684
2017-10-07 12:50:00+00:00,384.6345,12.5,13.44,47.84626,-54.09684
2017-10-07 13:00:00+00:00,383.1463,12.5,13.76,47.84626,-54.09684
2017-10-07 13:10:00+00:00,380.948,12.5,13.53,47.84626,-54.09684
2017-10-07 13:20:00+00:00,382.3679,12.5,13.84,47.84626,-54.09684
2017-10-07 13:30:00+00:00,377.8629,12.5,13.76,47.84626,-54.09684
2017-10-07 13:40:00+00:00,368.2496,12.5,13.68,47.84626,-54.09684
2017-10-07 13:50:00+00:00,367.9446,12.5,13.53,47.84626,-54.09684
2017-10-07 14:00:00+00:00,364.2412,12.5,13.44,47.84626,-54.09684
2017-10-07 14:10:00+00:00,348.8629,12.5,13.53,47.84626,-54.09684
2017-10-07 14:20:00+00:00,341.8313,12.5,13.53,47.84626,-54.09684
2017-10-07 14:30:00+00:00,341.7646,12.5,13.6,47.84626,-54.09684
2017-10-07 14:40:00+00:00,334.1564,12.5,13.53,47.84626,-54.09684
2017-10-07 14:50:00+00:00,320.6597,12.5,13.53,47.84626,-54.09684
2017-10-07 15:00:00+00:00,315.993,12.5,13.44,47.84626,-54.09684
2017-10-07 15:10:00+00:00,306.2364,12.5,13.53,47.84626,-54.09684
2017-10-07 15:20:00+00:00,286.423,12.52,13.44,47.84626,-54.09684
2017-10-07 15:30:00+00:00,277.5347,12.53,13.44,47.84626,-54.09684
2017-10-07 15:40:00+00:00,275.0631,12.55,13.44,47.84626,-54.09684
2017-10-07 15:50:00+00:00,261.3781,12.56,13.44,47.84626,-54.09684
2017-10-07 16:00:00+00:00,247.2397,12.57,13.6,47.84626,-54.09684
2017-10-07 16:10:00+00:00,245.4781,12.57,13.6,47.84626,-54.09684
2017-10-07 16:20:00+00:00,239.4731,12.58,13.44,47.84626,-54.09684
2017-10-07 16:30:00+00:00,227.0448,12.59,13.44,47.84626,-54.09684
2017-10-07 16:40:00+00:00,219.8864,12.58,13.44,47.84626,-54.09684
2017-10-07 16:50:00+00:00,216.3065,12.56,13.44,47.84626,-54.09684
2017-10-07 17:00:00+00:00,205.6998,12.57,13.44,47.84626,-54.09684
2017-10-07 17:10:00+00:00,195.8482,12.55,13.92,47.84626,-54.09684
2017-10-07 17:20:00+00:00,189.8248,12.54,13.53,47.84626,-54.09684
2017-10-07 17:30:00+00:00,181.9981,12.54,13.44,47.84626,-54.09684
2017-10-07 17:40:00+00:00,174.9065,12.5,13.44,47.84626,-54.09684
2017-10-07 17:50:00+00:00,172.0515,12.5,13.44,47.84626,-54.09684
2017-10-07 18:00:00+00:00,169.5265,12.5,13.53,47.84626,-54.09684
2017-10-07 18:10:00+00:00,164.8048,12.5,13.44,47.84626,-54.09684
2017-10-07 18:20:00+00:00,161.4382,12.5,13.84,47.84626,-54.09684
2017-10-07 18:30:00+00:00,160.1948,12.5,13.68,47.84626,-54.09684
2017-10-07 18:40:00+00:00,159.6781,12.5,13.68,47.84626,-54.09684
2017-10-07 18:50:00+00:00,162.3531,12.49,13.84,47.84626,-54.09684
2017-10-07 19:00:00+00:00,168.3465,12.48,13.68,47.84626,-54.09684
2017-10-07 19:10:00+00:00,170.0865,12.5,13.53,47.84626,-54.09684
2017-10-07 19:20:00+00:00,170.1581,12.5,13.53,47.84626,-54.09684
2017-10-07 19:30:00+00:00,176.8315,12.5,13.44,47.84626,-54.09684
2017-10-07 19:40:00+00:00,182.7798,12.51,13.44,47.84626,-54.09684
2017-10-07 19:50:00+00:00,185.6565,12.56,13.44,47.84626,-54.09684
2017-10-07 20:00:00+00:00,193.5348,12.59,13.29,47.84626,-54.09684
2017-10-07 20:10:00+00:00,201.703,12.6,13.21,47.84626,-54.09684
2017-10-07 20:20:00+00:00,203.1881,12.6,13.21,47.84626,-54.09684
2017-10-07 20:30:00+00:00,207.0631,12.6,13.21,47.84626,-54.09684
2017-10-07 20:40:00+00:00,215.5547,12.6,13.21,47.84626,-54.09684
2017-10-07 20:50:00+00:00,220.1414,12.6,13.21,47.84626,-54.09684
2017-10-07 21:00:00+00:00,227.1898,12.6,13.13,47.84626,-54.09684
2017-10-07 21:10:00+00:00,235.8281,12.6,13.05,47.84626,-54.09684
2017-10-07 21:20:00+00:00,239.4981,12.6,13.13,47.84626,-54.09684
2017-10-07 21:30:00+00:00,244.6597,12.6,13.13,47.84626,-54.09684
2017-10-07 21:40:00+00:00,251.6847,12.6,13.13,47.84626,-54.09684
2017-10-07 21:50:00+00:00,259.2798,12.6,13.13,47.84626,-54.09684
2017-10-07 22:00:00+00:00,265.4247,12.6,13.05,47.84626,-54.09684
2017-10-07 22:10:00+00:00,271.9814,12.6,12.97,47.84626,-54.09684
2017-10-07 22:20:00+00:00,279.5181,12.6,13.05,47.84626,-54.09684
2017-10-07 22:30:00+00:00,286.6863,12.56,13.05,47.84626,-54.09684
2017-10-07 22:40:00+00:00,295.163,12.56,13.05,47.84626,-54.09684
2017-10-07 22:50:00+00:00,306.9997,12.55,13.05,47.84626,-54.09684
2017-10-07 23:00:00+00:00,315.6263,12.59,13.05,47.84626,-54.09684
2017-10-07 23:10:00+00:00,319.1247,12.6,12.97,47.84626,-54.09684
2017-10-07 23:20:00+00:00,324.2063,12.6,13.05,47.84626,-54.09684
2017-10-07 23:30:00+00:00,337.778,12.59,13.05,47.84626,-54.09684
2017-10-07 23:40:00+00:00,345.5796,12.6,13.05,47.84626,-54.09684
2017-10-07 23:50:00+00:00,346.0663,12.58,13.05,47.84626,-54.09684
